Showing default

PROTOMETHEE, 58321

Orbit data source: Space-Track

PROTOMETHEE, 58321 is a payload satellite owned by Promethee (FR) in SSO that was launched on Sat, 11 Nov 2023 UTC via an FALCON 9 launch vehicle from the Air Force Western Test Range (AFWTR). Payloads include a variety of satellites, spacecraft, and rockets equipped with specific instruments for various scientific and technological missions. These include communications satellites like Starlink; space stations such as the ISS; scientific satellites like the Hubble; Earth observation satellites from companies like Planet Labs, Umbra, and HawkEye 360; GPS; miniature CubeSats for education and research; and military/defense satellites.

Loading next visibility...
PROTOMETHEE details
Identifier
58321, 2023-174BT
Orbit
SSO
Last TLE update9 hours ago
Origin
Flag of FRPromethee (FR)
ManufacturerNanoAvionics
MissionOperational Commercial Imaging
Bus & MotorCUBESAT 16U, Unknown motor
Mass30 kg wet, ~30 kg dry
Launch date (UTC)
2023-11-11 (1 year ago)
Launch vehicle
FALCON 9
Launch site
Air Force Western Test Range (AFWTR)
Object type
Payload
Rocket body
Debris
Shape & HBRBox + 2 Pan, 0.4 m
Radar Cross Section0.100 m², Medium (>0.1 m² and < 1m²)

Expand to show TLE details & history

TLE from 9 hours ago
0 PROTOMETHEE
1 58321U 23174BT  25015.13302931  .00008580  00000-0  37179-3 0  9992
2 58321  97.4303  92.5341 0008915 189.0849 171.0227 15.22593192 65890
Epoch: 2025-01-15T03:11Z
Definitive object data (Epoch: 2025-01-15T03:11:33.732Z)
Latitude-0.00008°
Longitude-70.18619°
Altitude507.172 km
Speed7.607 km/s
True Right ascension06h 10m 08s
True Declination0° 00' 00"
Sunlit
Object was in full shadow at TLE epoch
Visualization TLE readout
Latitude-36.2717°
Longitude104.71643°
Altitude506.455 km
Speed7.612 km/s
Apparent Right ascension20h 57m 42s
Apparent Declination-51° 13' 08"
Sunlit
Object is in daylight
Visualization observer readout
Local Sidereal Time12:41:52
Azimuth125.706° SE
Elevation-50.225°
Doppler factor1
Orbital elements
Apogee altitude501.113 km
Perigee altitude488.858 km
Semi-major axis6,873.123 km
Eccentricity0.0008915
Inclination97.4303°
RAAN92.5341°
Arg. of periapsis189.0849°
True anomaly171.03862°
Mean anomaly171.0227°
Eccentric anomaly171.03066°
Mean motion3.80901 °/min
BSTAR0.00037179
Orbital period94.51 mins
Loading maneuver chart data...
Loading historical data...
Loading historical data...
Loading historical data...
Loading historical data...
Loading historical data...
Loading historical data...
Loading historical data...

PROTOMETHEE Visibility forecast

Observer location: undefined°, undefined

Span
Click to sort rows by Start time (UTC) header in descending order
Start Az.
Max El. time (UTC)
Max El. Az.
Max El.
End time (UTC)
End Az.
6 mins2025-01-15 17:56:34.453Z9.514° NNE2025-01-15 17:59:34.453Z347.603° N42.95°2025-01-15 18:02:34.453Z197.373° SSW
5 mins2025-01-16 04:34:34.453Z128.458° SE2025-01-16 04:36:34.453Z77.732° E29.946°2025-01-16 04:39:34.453Z9.554° NNE
|